{"data":{"norad_id":48767,"epoch":"2026-05-25T01:56:27.816000Z","epoch_age_seconds":71521,"freshness":"FRESH","line1":"1 48767U 21045A   26145.08087750  .00000166  00000+0  40412-3 0  9993","line2":"2 48767  87.8994 263.6905 0001218 107.5801 252.5462 13.16195733241400","mean_motion":13.16195733,"eccentricity":0.0001218,"inclination_deg":87.8994,"raan_deg":263.6905,"arg_perigee_deg":107.5801,"mean_anomaly_deg":252.5462,"bstar":0.00040412,"rev_number":24140,"period_min":109.40622005496,"perigee_km":1198.3629032267,"apogee_km":1200.2087634289,"semimajor_km":7577.4228333278,"source":"CELESTRAK","updated_at":"2026-05-25T13:38:22.441140Z"}}